This demonstration page uses our WeatherBlox Daily Observations layout. Learn more.

Left ArrowRight Arrow

34.16533, -84.80231

Hourly Observations for June 6, 2022

Temp ( °F °C ) Dew Point ( °F °C ) Humidity (%) Winds ( mph kmh ) Pressure ( in mb ) Visibility ( mi km ) Precip ( " mm )
12:15 am 00:15 Partly Cloudy 70 21 61 16 73 73 Calm 29.91 1013 10 16 0.00 0.00
12:35 am 00:35 Mostly Clear 70 21 61 16 73 73 E 5 7 29.91 1013 10 16 0.00 0.00
12:55 am 00:55 Clear 70 21 61 16 73 73 Calm 29.91 1013 10 16 0.00 0.00
1:15 am 01:15 Clear 70 21 59 15 69 69 Calm 29.91 1013 10 16 0.00 0.00
1:35 am 01:35 Clear 70 21 59 15 69 69 E 6 9 29.90 1013 10 16 0.00 0.00
1:55 am 01:55 Clear 70 21 59 15 69 69 E 5 7 29.90 1013 10 16 0.00 0.00
2:15 am 02:15 Clear 70 21 59 15 69 69 ENE 6 9 29.90 1013 10 16 0.00 0.00
2:35 am 02:35 Mostly Clear 70 21 59 15 69 69 E 5 7 29.90 1013 10 16 0.00 0.00
2:55 am 02:55 Clear 68 20 59 15 73 73 E 5 7 29.90 1013 10 16 0.00 0.00
3:15 am 03:15 Clear 68 20 59 15 73 73 E 5 7 29.90 1013 10 16 0.00 0.00
3:35 am 03:35 Clear 68 20 59 15 73 73 E 5 7 29.90 1013 10 16 0.00 0.00
3:55 am 03:55 Clear 68 20 59 15 73 73 E 5 7 29.90 1013 10 16 0.00 0.00
4:15 am 04:15 Mostly Clear 68 20 59 15 73 73 Calm 29.91 1013 10 16 0.00 0.00
4:35 am 04:35 Mostly Clear 66 19 59 15 78 78 Calm 29.92 1013 10 16 0.00 0.00
4:55 am 04:55 Partly Cloudy 66 19 59 15 78 78 Calm 29.93 1013 10 16 0.00 0.00
5:15 am 05:15 Partly Cloudy 66 19 59 15 78 78 Calm 29.93 1013 10 16 0.00 0.00
5:35 am 05:35 Mostly Cloudy 64 18 59 15 83 83 Calm 29.94 1014 10 16 0.00 0.00
5:55 am 05:55 Mostly Cloudy 64 18 59 15 83 83 E 3 6 29.94 1014 10 16 0.00 0.00
6:15 am 06:15 Partly Cloudy 66 19 59 15 78 78 Calm 29.94 1014 10 16 0.00 0.00
6:35 am 06:35 Sunny 64 18 59 15 83 83 E 3 6 29.95 1014 10 16 0.00 0.00
6:55 am 06:55 Partly Cloudy 66 19 57 14 73 73 E 5 7 29.95 1014 10 16 0.00 0.00
7:15 am 07:15 Partly Cloudy 66 19 59 15 78 78 E 5 7 29.95 1014 10 16 0.00 0.00
7:35 am 07:35 Mostly Cloudy with Nearby Thunderstorms 68 20 59 15 73 73 E 6 9 29.95 1014 10 16 0.00 0.00
7:55 am 07:55 undefined 68 20 59 15 73 73 E 6 9 29.95 1014 10 16 0.00 0.00
8:15 am 08:15 Mostly Sunny 70 21 61 16 73 73 E 7 11 29.95 1014 10 16 0.00 0.00
8:35 am 08:35 Mostly Cloudy 70 21 61 16 73 73 E 6 9 29.96 1015 10 16 0.00 0.00
8:55 am 08:55 Mostly Cloudy 72 22 63 17 73 73 E 7 11 29.96 1014 10 16 0.00 0.00
9:15 am 09:15 Mostly Sunny 73 23 64 18 74 74 E 7 11 29.95 1014 10 16 0.00 0.00
9:35 am 09:35 Mostly Cloudy 75 24 64 18 69 69 VRB 6 9 29.96 1015 10 16 0.00 0.00
9:55 am 09:55 Mostly Cloudy 77 25 66 19 69 69 VRB 6 9 29.96 1015 10 16 0.00 0.00
10:15 am 10:15 Mostly Cloudy 75 24 66 19 74 74 SSE 6 9 29.96 1015 10 16 0.00 0.00
10:35 am 10:35 Partly Cloudy 77 25 68 20 74 74 E 8 13 29.96 1015 10 16 0.00 0.00
10:55 am 10:55 Mostly Cloudy 79 26 68 20 70 70 ESE 8 13 29.96 1014 10 16 0.00 0.00
11:15 am 11:15 Mostly Cloudy 79 26 68 20 70 70 ESE 8 13 29.95 1014 9 14 0.00 0.00
11:35 am 11:35 Mostly Cloudy 81 27 68 20 66 66 VRB 6 9 29.95 1014 10 16 0.00 0.00
11:55 am 11:55 Cloudy 81 27 68 20 66 66 VRB 6 9 29.95 1014 10 16 0.00 0.00
12:15 pm 12:15 Mostly Cloudy 82 28 68 20 62 62 ESE 10 17 29.94 1014 10 16 0.00 0.00
12:35 pm 12:35 Mostly Cloudy 81 27 66 19 62 62 VRB 7 11 29.94 1014 10 16 0.00 0.00
12:55 pm 12:55 Mostly Cloudy 81 27 66 19 62 62 SE 6 9 29.95 1014 10 16 0.00 0.00
1:15 pm 13:15 Mostly Cloudy 79 26 66 19 65 65 W 17 28 29.97 1015 10 16 0.00 0.00
1:35 pm 13:35 Cloudy with Light Rain 70 21 64 18 83 83 VRB 6 9 29.97 1015 4 6 0.00 0.00
1:55 pm 13:55 Partly Cloudy with Light Rain 68 20 66 19 94 94 Calm 29.95 1014 5 8 0.11 2.79
2:15 pm 14:15 Sunny with Light Rain 72 22 70 21 94 94 Calm 29.95 1014 9 14 0.00 0.00
2:35 pm 14:35 Sunny 73 23 72 22 94 94 Calm 29.92 1013 10 16 0.00 0.00
2:55 pm 14:55 Sunny 75 24 70 21 83 83 Calm 29.92 1013 10 16 0.01 0.25
3:15 pm 15:15 Sunny 79 26 70 21 74 74 VRB 7 11 29.91 1013 10 16 0.00 0.00
3:35 pm 15:35 Sunny 81 27 70 21 70 70 VRB 5 7 29.89 1012 10 16 0.00 0.00
3:55 pm 15:55 Sunny 81 27 70 21 70 70 S 6 9 29.89 1012 10 16 0.00 0.00
4:15 pm 16:15 Sunny 82 28 68 20 62 62 VRB 7 11 29.88 1012 10 16 0.00 0.00
4:35 pm 16:35 Sunny 84 29 68 20 58 58 SE 8 13 29.88 1012 10 16 0.00 0.00
4:55 pm 16:55 Sunny 84 29 64 18 51 51 SE 9 15 29.87 1011 10 16 0.00 0.00
5:15 pm 17:15 Sunny 86 30 63 17 46 46 SSE 12 19 29.87 1011 10 16 0.00 0.00
5:35 pm 17:35 Sunny 82 28 66 19 58 58 SSE 13 20 29.88 1012 10 16 0.00 0.00
5:55 pm 17:55 Sunny 79 26 64 18 61 61 SSE 7 11 29.90 1012 10 16 0.00 0.00
6:15 pm 18:15 Sunny 79 26 66 19 65 65 ESE 6 9 29.89 1012 10 16 0.00 0.00
6:35 pm 18:35 Sunny 77 25 66 19 69 69 ESE 9 15 29.89 1012 10 16 0.00 0.00
6:55 pm 18:55 Sunny with Nearby Thunderstorms 79 26 66 19 65 65 Calm 29.91 1013 10 16 0.00 0.00
7:15 pm 19:15 Mostly Sunny 77 25 64 18 65 65 SE 3 6 29.91 1013 10 16 0.00 0.00
7:35 pm 19:35 Mostly Cloudy with Light Rain 77 25 66 19 69 69 E 3 6 29.91 1013 8 13 0.00 0.00
7:55 pm 19:55 Mostly Cloudy with Light Rain 75 24 68 20 78 78 Calm 29.90 1013 10 16 0.01 0.25
8:15 pm 20:15 Sunny 73 23 70 21 89 89 Calm 29.91 1013 10 16 0.00 0.00
8:35 pm 20:35 Sunny 73 23 68 20 83 83 SE 3 6 29.91 1013 10 16 0.00 0.00
8:55 pm 20:55 Clear 72 22 68 20 88 88 Calm 29.92 1013 10 16 0.00 0.00
9:15 pm 21:15 Clear 72 22 68 20 88 88 Calm 29.92 1013 10 16 0.00 0.00
9:35 pm 21:35 Mostly Clear 72 22 68 20 88 88 Calm 29.92 1013 10 16 0.00 0.00
9:55 pm 21:55 Mostly Cloudy 70 21 68 20 94 94 Calm 29.93 1014 10 16 0.00 0.00
10:15 pm 22:15 Cloudy 70 21 68 20 94 94 Calm 29.94 1014 10 16 0.00 0.00
10:35 pm 22:35 Mostly Cloudy 70 21 68 20 94 94 Calm 29.94 1014 10 16 0.00 0.00
10:55 pm 22:55 Mostly Clear 70 21 68 20 94 94 Calm 29.94 1014 10 16 0.00 0.00
11:15 pm 23:15 Mostly Clear 72 22 68 20 88 88 Calm 29.94 1014 10 16 0.00 0.00
11:35 pm 23:35 Clear 72 22 68 20 88 88 Calm 29.93 1013 10 16 0.00 0.00
11:55 pm 23:55 Clear 72 22 68 20 88 88 Calm 29.93 1013 10 16 0.00 0.00

Powered by AerisWeather